[[{"header":{"parameterUnit":"m.s-1","parameterCategory":1,"la1":30.2991,"la2":30.254,"lo1":-89.0895,"lo2":-89.0444,"dy":0.0017,"dx":0.0017,"nx":28,"ny":28,"refTime":"2025-01-08T03:00:00:Z","depth":0,"parameterNumber":2,"parameterNumberName":"U-component_of_WINDS"},"data":[0,0,0,0,0,0,0,0,0,0,0,0,0,0,0,0,0,0,0,0,0,0,0,0,0,0,0,0,0,0,0,0,0,0,0,0,0,0,0,0,0,0,0,0,0,0,0,0,0,0,0,0,0,0,0,0,0,0,0.4008,0.4008,0,0.3998,0.3998,0.3998,0.3995,0.3995,0.3996,0.3996,0.3984,0.3983,0.3983,0,0,0,0,0,0,0,0,0,0,0,0,0,0.4025,0.4025,0.4008,0.4008,0.4008,0.3998,0.3998,0.3998,0.3995,0.3995,0.3996,0.3996,0.3984,0.3983,0.3983,0,0,0,0,0,0,0,0,0,0,0,0,0,0.4017,0.4025,0.4008,0.4006,0.4005,0.3998,0.3998,0.3998,0.3995,0.3995,0.3996,0.3996,0.3984,0.3983,0.3983,0.3977,0,0,0.3981,0.3981,0,0,0,0,0,0,0,0,0.4017,0.4016,0.4006,0.4006,0.4006,0.3998,0.4,0.3991,0.3995,0.3999,0.3996,0.3996,0.3988,0.3987,0.3985,0.3976,0.3976,0.3981,0.3981,0.398,0.398,0,0,0,0,0,0,0,0.4018,0.4017,0.4004,0.4006,0.4006,0.4005,0.4004,0.3998,0.3993,0.3999,0.3999,0.3998,0.3988,0.3986,0.3985,0.3976,0.3981,0.398,0.398,0.398,0.3963,0.3963,0,0,0,0,0,0,0.4019,0.4017,0.4005,0.4004,0.4012,0.4005,0.4003,0.4,0.3993,0.3992,0.3997,0.3997,0.3987,0.3986,0.3984,0.3978,0.398,0.398,0.398,0.3963,0.3963,0.3963,0,0,0,0,0,0,0.4019,0.4018,0.4005,0.401,0.4009,0.4004,0.4001,0.4,0.3998,0.3992,0.3991,0.3996,0.3987,0.3985,0.3979,0.3977,0.398,0.3979,0.3963,0.3963,0.3963,0.3964,0,0,0,0,0,0,0.402,0.4018,0.4016,0.401,0.4008,0.4,0.4001,0.4,0.3997,0.3997,0.399,0.399,0.3987,0.398,0.3979,0.3976,0.3979,0.3963,0.3963,0.3963,0.3964,0.3964,0.3963,0,0,0,0,0,0.4021,0.4016,0.4016,0.4014,0.4006,0.4,0.3999,0.3996,0.3997,0.3994,0.3991,0.399,0.3978,0.3979,0.3978,0.3975,0.3963,0.3963,0.3963,0.3964,0.3964,0.3963,0,0,0,0,0,0,0.402,0.4015,0.4015,0.4008,0.4005,0.3999,0.3996,0.3995,0.3991,0.3991,0.3987,0.3986,0.398,0.3977,0.3979,0.397,0.3971,0.397,0.3972,0.3972,0.3971,0.3972,0.3978,0,0,0,0,0,0.402,0.4016,0.4011,0.4006,0.4004,0.4001,0.3998,0.3997,0.3992,0.399,0.3987,0.3982,0.3978,0.3975,0.397,0.3964,0.3962,0.3961,0.3961,0.3961,0.396,0.3958,0.3957,0.3962,0.3962,0.3962,0,0,0.4018,0.4015,0.4012,0.4006,0.4003,0.3999,0.3999,0.3995,0.3992,0.399,0.3984,0.3981,0.3976,0.397,0.3967,0.3967,0.3959,0.3961,0.3961,0.396,0.3957,0.3957,0.3956,0.3962,0.3962,0.3962,0,0,0.4013,0.401,0.4006,0.4003,0.3999,0.3996,0.3996,0.3991,0.3989,0.3983,0.3982,0.3978,0.397,0.3967,0.3964,0.396,0.3958,0.3958,0.3957,0.3954,0.3954,0.3954,0.3952,0.3952,0.3958,0.3958,0.3958,0,0.4011,0.4005,0.4003,0.3999,0.3997,0.3996,0.3991,0.3989,0.3983,0.3981,0.3982,0.3972,0.3969,0.3962,0.3962,0.3959,0.3958,0.3959,0.3954,0.3954,0.3954,0.3952,0.3952,0.3958,0.3958,0.3958,0.3958,0,0.4004,0.4,0.3997,0.3992,0.3989,0.3985,0.3983,0.398,0.3979,0.3977,0.3972,0.3968,0.3963,0.3961,0.396,0.3955,0.3955,0.3955,0.3956,0.3953,0.3952,0.3951,0.3958,0.3958,0.3958,0.3958,0,0,0.3997,0.3992,0.3991,0.399,0.3985,0.3982,0.3978,0.3974,0.3972,0.3969,0.3965,0.3959,0.396,0.3957,0.3955,0.3953,0.395,0.3953,0.3953,0.3953,0.3945,0.3945,0.3944,0.3949,0.3949,0.3949,0.3946,0,0.3991,0.3984,0.3983,0.3977,0.3974,0.3974,0.397,0.3968,0.3966,0.3963,0.3961,0.3957,0.3957,0.3955,0.3953,0.3951,0.3948,0.3951,0.3946,0.3946,0.3947,0.3944,0.3943,0.394,0.3945,0.3945,0.3945,0,0.3983,0.3981,0.3975,0.3972,0.397,0.3967,0.3964,0.3961,0.3958,0.3957,0.3955,0.3954,0.395,0.3951,0.3946,0.3948,0.3946,0.3945,0.3945,0.3944,0.3945,0.3943,0.3939,0.3938,0.3944,0.3944,0.3944,0,0.3979,0.3974,0.397,0.3969,0.3965,0.3963,0.3962,0.3959,0.3957,0.3954,0.3953,0.3949,0.3947,0.3945,0.3943,0.3944,0.3938,0.3939,0.3937,0.3937,0.3936,0.3936,0.3931,0.3935,0.3935,0.3935,0.3935,0,0.3973,0.3969,0.3968,0.3966,0.3962,0.3961,0.3957,0.3956,0.3954,0.3951,0.395,0.3948,0.3946,0.3943,0.3942,0.3938,0.3937,0.3936,0.3936,0.3936,0.3936,0.3934,0.3935,0.3935,0.3935,0.3935,0.3935,0,0.3968,0.3967,0.3962,0.396,0.396,0.3957,0.3955,0.3953,0.3952,0.3948,0.3947,0.3945,0.3942,0.3941,0.3936,0.3936,0.3931,0.3931,0.3933,0.3932,0.3931,0.3931,0.3925,0.3924,0.3928,0.3928,0.3928,0,0.3964,0.3961,0.3959,0.3957,0.3956,0.3953,0.3952,0.3951,0.3949,0.3946,0.3945,0.3942,0.3939,0.3934,0.3932,0.3929,0.3929,0.3927,0.3929,0.3929,0.3929,0.3929,0.3929,0.3927,0.3927,0.3927,0.3927,0,0.3957,0.3957,0.3954,0.3952,0.395,0.3948,0.3946,0.3945,0.3944,0.3942,0.394,0.3938,0.3934,0.3931,0.3929,0.3927,0.3927,0.3927,0.3926,0.3926,0.3927,0.3927,0.3932,0.3926,0.3927,0.3927,0.3927,0.3927,0.3952,0.395,0.3948,0.3946,0.3945,0.3943,0.3941,0.3941,0.3938,0.3936,0.3935,0.3933,0.3931,0.3927,0.3926,0.3924,0.3924,0.3923,0.3923,0.3923,0.3923,0.3928,0.3923,0.3923,0.3923,0.3923,0.3923,0,0.3945,0.3944,0.3942,0.394,0.3939,0.3939,0.3938,0.3936,0.3934,0.3932,0.393,0.3928,0.3925,0.3924,0.3922,0.392,0.392,0.392,0.392,0.3919,0.3922,0.3923,0.392,0.392,0.392,0.392,0.392,0.392,0.3941,0.3938,0.3938,0.3935,0.3934,0.3932,0.3931,0.3929,0.3928,0.3926,0.3924,0.3923,0.3922,0.392,0.3918,0.3918,0.3917,0.3916,0.3916,0.3919,0.3919,0.3919,0.392,0.3916,0.3916,0.3913,0.3913,0.3913]},{"header":{"parameterUnit":"m.s-1","parameterCategory":1,"la1":30.2991,"la2":30.254,"lo1":-89.0895,"lo2":-89.0444,"dy":0.0017,"dx":0.0017,"nx":28,"ny":28,"refTime":"2025-01-08T03:00:00:Z","depth":0,"parameterNumber":3,"parameterNumberName":"V-component_of_WINDS"},"data":[0,0,0,0,0,0,0,0,0,0,0,0,0,0,0,0,0,0,0,0,0,0,0,0,0,0,0,0,0,0,0,0,0,0,0,0,0,0,0,0,0,0,0,0,0,0,0,0,0,0,0,0,0,0,0,0,0,0,-5.429,-5.4291,0,-5.4422,-5.4423,-5.4424,-5.4351,-5.4347,-5.4344,-5.434,-5.447,-5.4477,-5.4484,0,0,0,0,0,0,0,0,0,0,0,0,0,-5.3969,-5.3975,-5.4289,-5.4291,-5.4293,-5.4421,-5.4423,-5.4425,-5.4351,-5.4347,-5.4343,-5.4338,-5.4468,-5.4476,-5.4484,0,0,0,0,0,0,0,0,0,0,0,0,0,-5.4105,-5.3977,-5.4289,-5.4272,-5.4272,-5.4421,-5.4423,-5.4425,-5.4352,-5.4347,-5.4341,-5.4336,-5.4465,-5.4475,-5.4486,-5.4658,0,0,-5.4517,-5.4522,0,0,0,0,0,0,0,0,-5.4098,-5.4117,-5.4273,-5.4273,-5.4273,-5.4364,-5.4358,-5.4503,-5.4354,-5.4322,-5.434,-5.4334,-5.4439,-5.4451,-5.4488,-5.4664,-5.467,-5.4518,-5.4524,-5.4529,-5.4532,0,0,0,0,0,0,0,-5.4088,-5.4111,-5.4342,-5.4275,-5.4275,-5.4256,-5.4269,-5.4385,-5.4409,-5.4324,-5.4319,-5.4336,-5.4438,-5.4478,-5.449,-5.4672,-5.4518,-5.4527,-5.4533,-5.4537,-5.4995,-5.5,0,0,0,0,0,0,-5.4081,-5.4104,-5.4337,-5.4345,-5.417,-5.4266,-5.4281,-5.434,-5.4408,-5.4413,-5.434,-5.4332,-5.4463,-5.4478,-5.4495,-5.47,-5.4529,-5.4538,-5.4544,-5.4989,-5.4996,-5.5002,0,0,0,0,0,0,-5.4074,-5.4102,-5.4332,-5.4223,-5.4251,-5.4277,-5.4345,-5.4346,-5.4386,-5.442,-5.4424,-5.4377,-5.446,-5.448,-5.4618,-5.4704,-5.4543,-5.4552,-5.4982,-5.4991,-5.4999,-5.5113,0,0,0,0,0,0,-5.4065,-5.41,-5.4167,-5.4225,-5.4257,-5.4455,-5.435,-5.4352,-5.4404,-5.4394,-5.4456,-5.446,-5.4457,-5.4603,-5.4628,-5.4715,-5.456,-5.4974,-5.4986,-5.4996,-5.5102,-5.5125,-5.5145,0,0,0,0,0,-5.4054,-5.4194,-5.4171,-5.42,-5.4342,-5.446,-5.4478,-5.4473,-5.4412,-5.4478,-5.45,-5.4458,-5.469,-5.4618,-5.4646,-5.4737,-5.4969,-5.4982,-5.4995,-5.5092,-5.512,-5.5144,0,0,0,0,0,0,-5.4143,-5.4201,-5.4177,-5.434,-5.4396,-5.4448,-5.4532,-5.4503,-5.4577,-5.4564,-5.4553,-5.4567,-5.4711,-5.4737,-5.4655,-5.4906,-5.482,-5.4839,-5.4884,-5.4911,-5.4932,-5.4922,-5.4569,0,0,0,0,0,-5.4183,-5.4276,-5.432,-5.4459,-5.4489,-5.4506,-5.4557,-5.4548,-5.4605,-5.4628,-5.466,-5.4716,-5.4801,-5.4857,-5.4938,-5.5105,-5.5117,-5.5181,-5.5203,-5.522,-5.5237,-5.5326,-5.5355,-5.5047,-5.5046,-5.5046,0,0,-5.4263,-5.4306,-5.4365,-5.4478,-5.4521,-5.4616,-5.4526,-5.4631,-5.47,-5.4643,-5.4776,-5.4801,-5.4862,-5.5016,-5.5085,-5.5042,-5.5325,-5.5237,-5.5251,-5.5259,-5.5343,-5.5372,-5.5398,-5.5056,-5.5054,-5.5053,0,0,-5.4459,-5.4502,-5.4622,-5.4667,-5.4733,-5.4743,-5.4772,-5.4829,-5.4844,-5.4977,-5.4936,-5.5017,-5.5165,-5.521,-5.5252,-5.5465,-5.5428,-5.5491,-5.5602,-5.5689,-5.5714,-5.5735,-5.581,-5.5837,-5.5508,-5.5508,-5.5508,0,-5.4551,-5.4694,-5.4687,-5.4795,-5.4845,-5.4799,-5.492,-5.4963,-5.5052,-5.5086,-5.5038,-5.5222,-5.5259,-5.5422,-5.5474,-5.551,-5.5541,-5.5484,-5.5711,-5.5733,-5.5752,-5.5823,-5.5852,-5.5515,-5.5514,-5.5514,-5.5513,0,-5.4803,-5.4903,-5.4992,-5.508,-5.514,-5.5253,-5.5262,-5.5323,-5.5309,-5.5324,-5.5459,-5.5503,-5.5591,-5.5629,-5.5615,-5.579,-5.5761,-5.5712,-5.5625,-5.5789,-5.5855,-5.5883,-5.5525,-5.5523,-5.5521,-5.5519,0,0,-5.5059,-5.5142,-5.5174,-5.5213,-5.5283,-5.5359,-5.5469,-5.5557,-5.5609,-5.5671,-5.5763,-5.5888,-5.5844,-5.5892,-5.5882,-5.5959,-5.6123,-5.5901,-5.5902,-5.594,-5.6316,-5.6351,-5.6383,-5.61,-5.6105,-5.6109,-5.631,0,-5.5259,-5.5454,-5.5451,-5.5631,-5.5722,-5.568,-5.5776,-5.5828,-5.5845,-5.5923,-5.594,-5.6029,-5.5964,-5.5993,-5.6067,-5.6088,-5.6198,-5.6073,-5.6183,-5.6187,-5.6168,-5.6418,-5.6456,-5.6644,-5.6336,-5.6341,-5.6344,0,-5.5518,-5.559,-5.578,-5.5835,-5.5873,-5.596,-5.6039,-5.6115,-5.6172,-5.6179,-5.6233,-5.6212,-5.6322,-5.6232,-5.6383,-5.6298,-5.6342,-5.6359,-5.6366,-5.6375,-5.6275,-5.6433,-5.6704,-5.6732,-5.6385,-5.6382,-5.6379,0,-5.5684,-5.5829,-5.5961,-5.5995,-5.6063,-5.6125,-5.6156,-5.6208,-5.6261,-5.6329,-5.6363,-5.6443,-5.6487,-5.6549,-5.6549,-5.6484,-5.6701,-5.6611,-5.6708,-5.6708,-5.6755,-5.6752,-5.7036,-5.6786,-5.6785,-5.6785,-5.6784,0,-5.5907,-5.6025,-5.6036,-5.6118,-5.6248,-5.6242,-5.637,-5.6394,-5.6441,-5.6525,-5.6493,-5.6572,-5.6568,-5.6647,-5.6648,-5.6772,-5.6792,-5.6799,-5.6797,-5.6801,-5.68,-5.683,-5.6816,-5.6792,-5.679,-5.6789,-5.6788,0,-5.6114,-5.6127,-5.6269,-5.6321,-5.6337,-5.6431,-5.6475,-5.6551,-5.6565,-5.6671,-5.6696,-5.6717,-5.6809,-5.6815,-5.6921,-5.6921,-5.7071,-5.7056,-5.7053,-5.705,-5.7146,-5.7136,-5.7458,-5.7499,-5.7223,-5.7225,-5.7227,0,-5.6255,-5.6345,-5.6408,-5.6463,-5.6497,-5.6586,-5.6639,-5.6637,-5.6693,-5.6765,-5.6832,-5.6921,-5.6992,-5.7141,-5.7164,-5.7244,-5.723,-5.7337,-5.7242,-5.7243,-5.723,-5.7225,-5.7233,-5.7356,-5.7359,-5.7361,-5.7363,0,-5.6504,-5.6506,-5.6585,-5.6668,-5.6733,-5.6797,-5.6856,-5.6903,-5.6907,-5.6972,-5.7066,-5.7122,-5.723,-5.7318,-5.7397,-5.7426,-5.7395,-5.7393,-5.742,-5.7424,-5.7418,-5.7422,-5.7102,-5.7386,-5.7383,-5.7382,-5.7381,-5.738,-5.6682,-5.6759,-5.6816,-5.6905,-5.695,-5.7006,-5.708,-5.7104,-5.7183,-5.7272,-5.7265,-5.7369,-5.7422,-5.7525,-5.756,-5.764,-5.7604,-5.7642,-5.7652,-5.7661,-5.7671,-5.7407,-5.7654,-5.7654,-5.7653,-5.7653,-5.7652,0,-5.6928,-5.6962,-5.7044,-5.7129,-5.7199,-5.7166,-5.723,-5.729,-5.7383,-5.7436,-5.7507,-5.7614,-5.7699,-5.773,-5.7812,-5.787,-5.7858,-5.7892,-5.7887,-5.7894,-5.7699,-5.7668,-5.79,-5.79,-5.79,-5.79,-5.79,-5.79,-5.7064,-5.7193,-5.7201,-5.7351,-5.7384,-5.7487,-5.7526,-5.7577,-5.762,-5.7742,-5.7813,-5.7833,-5.7877,-5.7962,-5.8038,-5.8044,-5.8075,-5.8115,-5.8116,-5.7933,-5.7908,-5.7884,-5.7854,-5.8122,-5.8123,-5.8304,-5.8305,-5.8307]}]]